Location: Rounton
(54.4000°N, 1.3500°W)
Time: 07:00:06
(UTC+00:00)

SR - Pass Details

Date: 08 December 2021
Orbit: 582 x 872 km, 66.7° (Epoch: 23 January)

Event Time Altitude Azimuth Distance (km) Brightness Sun altitude
Exits shadow 06:37:12 17° 315° (NW) 1,513 ? -12.8°
Maximum altitude 06:40:27 78° 231° (SW) 622 ? -12.4°
Drops below altitude 10° 06:44:55 10° 145° (SE) 2,002 ? -11.7°
Sets 06:47:15 0° 145° (SE) 2,945 ? -11.4°
